Showing default

HAWK-2A, 47505

Orbit data source: Space-Track

HAWK-2A, 47505 is a payload satellite owned by HawkEye 360 (US) in SSO that was launched on Sun, 24 Jan 2021 UTC via an FALCON 9 launch vehicle from the Air Force Eastern Test Range (AFETR). Payload-class satellites include a variety of spacecraft equipped with specific instruments for various scientific and technological missions. These include communications satellites like Starlink; space stations such as the ISS; scientific satellites like the Hubble; Earth observation satellites from companies like Planet Labs, Umbra, and HawkEye 360; GPS; miniature CubeSats for education and research; and military/defense satellites.

Loading next visibility...
Identifier
47505, 2021-006CW
Orbit
SSO
Country
Flag of USUS
Related business
Manufacturer
UTIAS-SFL
Mission
Operational Commercial Sigint
Bus & Motor
DEFIANT, Unknown motor
Mass
31 kg wet, 30 kg dry
Launch date (UTC)
2021-01-24 (5 years ago)
Launch vehicle
FALCON 9
Launch site
Air Force Eastern Test Range (AFETR)
Object type
Payload
Rocket body
Debris
Shape & HBR
Box + 2 Pan, 1.0 m
Radar Cross Section
0.348 m², Medium (>0.1 m² and < 1m²)

Expand to show TLE details & history
Last TLE update: 8 hours ago

TLE from 8 hours ago
0 HAWK-2A
1 47505U 21006CW  25289.12315873  .00009075  00000-0  31152-3 0  9992
2 47505  97.2706 333.9942 0007251  13.0669 347.0759 15.30335706262117
Epoch: 2025-10-16T02:57Z
TLE epoch observation values (Epoch: 2025-10-16T02:57:20.914Z)
Latitude
0.00003°
Longitude
-95.23035°
Altitude
473.074 km
Speed
7.632 km/s
True Right ascension
22h 15m 58s
True Declination
0° 00' 00"
Sunlit
Object was in full shadow at epoch
Visualization orbit readout
Latitude
Unknown
Longitude
Unknown
Altitude
Unknown
Speed
Unknown
Apparent Right ascension
Unknown
Apparent Declination
Unknown
Sunlit
N/A
Visualization observer readout
Local Sidereal Time
05:11:59
Azimuth
Unknown
Elevation
Unknown
Doppler factor
Unknown
Orbital elements
Apogee altitude
476.723 km
Perigee altitude
466.789 km
Semi-major axis
6,849.893 km
Eccentricity
0.00073
Inclination
97.2706°
RAAN
333.9942°
Arg. of periapsis
13.0669°
True anomaly
347.0573°
Mean anomaly
347.0759°
Eccentric anomaly
347.0666°
Mean motion
3.8284 °/min
Orbital period
94.03 mins
BSTAR
0.00031152
Loading maneuver chart data...
Computing Atmospheric mass density...

Documentation

Showing up to 5 results
|